Simultaneous Nadir Overpasses (SNOs) Predictions

Prediction of SNOs between AQUA and METOP-B Satellite Orbit:

Table of predicted SNOs for the next 14.0 days since TLE Epoch: 9/4/2020
Index Date (AQUA) Time (AQUA) Lat,Lon (AQUA) SZA (AQUA ) Date (METOP-B) Time (METOP-B) Lat,Lon (METOP-B) SZA (METOP-B ) Distance(km) Time Diff (sec)
1 09/06/2020 07:16:29 73.57, 65.69 67.31 09/06/2020 07:15:18 73.50, 64.53 67.28 37.59 71
2 09/06/2020 08:06:00 -73.86,-127.30 112.37 09/06/2020 08:05:52 -73.88,-127.26 112.36 1.76 8
3 09/06/2020 08:55:29 73.94, 40.18 67.72 09/06/2020 08:56:31 73.92, 40.19 67.70 1.45 62
4 09/09/2020 02:50:47 73.74, 131.77 68.54 09/09/2020 02:49:34 73.72, 131.45 68.54 9.99 73
5 09/09/2020 03:40:15 -73.87, -60.87 111.32 09/09/2020 03:40:13 -73.85, -60.90 111.33 1.74 2
6 09/09/2020 04:29:44 73.95, 106.59 68.79 09/09/2020 04:30:51 73.95, 106.65 68.78 1.90 67
7 09/11/2020 22:25:02 73.81,-161.95 69.68 09/11/2020 22:23:52 73.79,-161.97 69.67 2.37 70
8 09/11/2020 23:14:29 -73.88, 5.55 110.24 09/11/2020 23:14:32 -73.88, 5.58 110.24 0.92 3
9 09/12/2020 00:03:58 73.96, 172.99 69.87 09/12/2020 00:05:10 73.97, 173.11 69.86 3.78 72
10 09/14/2020 17:59:17 73.83, -95.56 70.77 09/14/2020 17:58:12 73.81, -95.51 70.76 3.01 65
11 09/14/2020 18:48:44 -73.89, 71.96 109.16 09/14/2020 18:48:52 -73.91, 72.04 109.14 3.18 8
12 09/14/2020 19:38:16 74.14,-120.97 71.13 09/14/2020 19:39:27 74.13,-120.06 71.09 27.71 71
13 09/17/2020 13:33:31 73.81, -29.06 71.83 09/17/2020 13:32:32 73.83, -29.06 71.85 2.06 59
14 09/17/2020 14:22:58 -73.86, 138.47 108.11 09/17/2020 14:23:13 -73.88, 138.39 108.09 3.18 15
